Location: site
(53.0000°N, 23.0500°E)
Time: 22:35:34
(UTC+01:00)

SAOCOM 1-A - Pass Details

Date: 25 January 2020
Orbit: 621 x 623 km, 97.9° (Epoch: 24 February)

Event Time Altitude Azimuth Distance (km) Brightness Sun altitude
Rises 06:20:02 0° 221° (SW) 2,897 ? -9.3°
Reaches altitude 10° 06:23:42 10° 254° (WSW) 1,998 ? -8.8°
Maximum altitude 06:25:16 12° 275° (W) 1,887 ? -8.6°
Enters shadow 06:26:24 11° 291° (WNW) 1,949 ? -8.4°
